Location: Boiro
(42.6475°N, 8.8834°W)
Time: 18:02:46
(UTC+01:00)

Explorer 7 - Pass Details

Date: 04 December 2021
Orbit: 483 x 674 km, 50.3° (Epoch: 20 January)

Event Time Altitude Azimuth Distance (km) Brightness Sun altitude
Rises 12:52:48 0° 300° (WNW) 2,625 9.9 24.6°
Reaches altitude 10° 12:55:02 10° 298° (WNW) 1,713 9.1 24.7°
Maximum altitude 12:58:52 72° 215° (SW) 517 7.3 24.8°
Drops below altitude 10° 13:02:36 10° 130° (SE) 1,659 10.1 24.8°
Sets 13:04:44 0° 128° (SE) 2,532 10.8 24.9°
